Location: Pian di Sc�
(43.6333°N, 11.5500°E)
Time: 18:10:59
(UTC+00:00)

SL-16 R/B - Pass Details

Date: 07 August 2020
Orbit: 985 x 1007 km, 99.5° (Epoch: 17 September)

Event Time Altitude Azimuth Distance (km) Brightness Sun altitude
Exits shadow 00:28:37 42° 126° (SE) 1,405 3.1 -28.0°
Maximum altitude 00:30:34 60° 70° (ENE) 1,147 2.9 -27.9°
Drops below altitude 10° 00:36:43 10° 352° (N) 2,790 5.6 -27.5°
Sets 00:39:14 0° 349° (N) 3,741 6.4 -27.3°
